Content
SEND FEEDBACK

Daily
Averages
Monthly
Summary
United States of America

COAL CENTER, PENNSYLVANIA


Home > North America > United States > Pennsylvania
Elevation: 810 feet     Latitude: 40 05N     Longitude: 079 54W

WEATHER
 
SELECT A DAY
Number of Records: 206,336;   Date Range: 1/1/95 - 8/17/14
 
SHARE

PRINT THIS DATA

[ ← Previous Day ]
WEATHER ALMANAC - JANUARY 31, 2013
[ Next Day → ]
[ °C ]   °F
Weather ElementAverageHighLow
Temperature27.2 °F41 °F (12:53 am)21.2 °F (11:08 pm)
Dewpoint21.6 °F37.9 °F (12:53 am)10.9 °F (4:53 pm)
Humidity80.1 %96 % (4:53 am)57 % (4:53 pm)
Barometer29.62 in29.88 in (9:53 pm)29.27 in (12:53 am)
Wind Speed19.2 mph32.2 mph (2:38 am)
Wind Gust48.3 mph (2:38 am)
Weather ElementAverage
Visibility4.5 mi
Wind DirectionWSW (259.3 °)

Weather ElementTotal
Precipitation0.02 in
Heating Degree Days33.9 (Base 65)
Averaged from 69 records on January 31, 2013
WEATHER CONDITIONS BREAKOUT
WIND DIRECTION BREAKOUT
WEATHER BY HOUR - JANUARY 31, 2013
[ °C ]   °F
Local TimeTemperatureDewpointHumidityBarometerVisibilityWind DirectionWind SpeedGust SpeedPrecipitationEventsConditions
12:53 AM41.0 °F37.9 °F89 %29.27 in9.0 miWest (280°)20.7 mph38.0 mph0.01 inRainLight Rain
1:53 AM36.0 °F33.1 °F89 %29.34 in10.0 miWest (280°)21.9 mph34.5 mph0.01 inRainLight Rain
2:08 AM35.6 °F32.0 °F87 %29.32 in10.0 miWest (270°)23.0 mph39.1 mph0.00 inOvercast
2:38 AM33.8 °F30.2 °F87 %29.35 in2.5 miWest (270°)32.2 mph48.3 mph0.00 inSnowLight Snow
2:46 AM33.8 °F30.2 °F87 %29.36 in1.5 miWest (270°)25.3 mph48.3 mph0.00 inSnowLight Snow
2:51 AM33.8 °F30.2 °F87 %29.37 in3.0 miWest (260°)21.9 mph39.1 mph0.00 inSnowLight Snow
2:53 AM33.1 °F30.0 °F89 %29.39 in5.0 miWest (260°)23.0 mph39.1 mph0.00 inSnowLight Snow
3:23 AM33.8 °F28.4 °F81 %29.38 in6.0 miWest (260°)27.6 mph38.0 mph0.00 inOvercast
3:35 AM33.8 °F28.4 °F81 %29.39 in8.0 miWSW (250°)18.4 mph32.2 mph0.00 inOvercast
3:53 AM33.1 °F27.0 °F78 %29.42 in10.0 miWSW (250°)17.3 mph38.0 mph0.00 inMostly Cloudy
4:12 AM32.0 °F26.6 °F80 %29.41 in1.5 miWNW (290°)20.7 mph31.1 mph0.00 inSnowLight Snow
4:20 AM30.2 °F26.6 °F86 %29.41 in0.5 miWest (280°)21.9 mph39.1 mph0.00 inFog-SnowSnow
4:28 AM30.2 °F28.4 °F93 %29.41 in0.2 miWest (280°)27.6 mph42.6 mph0.00 inFog-SnowSnow
4:36 AM30.2 °F28.4 °F93 %29.42 in0.8 miWest (280°)16.1 mph38.0 mph0.00 inSnowLight Snow
4:44 AM30.2 °F28.4 °F93 %29.42 in1.5 miWest (280°)13.8 mph23.0 mph0.00 inSnowLight Snow
4:53 AM30.0 °F28.9 °F96 %29.46 in1.2 miWest (270°)10.4 mph21.9 mph0.00 inSnowLight Snow
4:56 AM30.2 °F28.4 °F93 %29.43 in2.0 miWest (260°)17.3 mph23.0 mph0.00 inSnowLight Snow
4:59 AM30.2 °F28.4 °F93 %29.43 in3.0 miWest (260°)17.3 mph23.0 mph0.00 inSnowLight Snow
5:27 AM30.2 °F24.8 °F80 %29.44 in9.0 miWest (260°)25.3 mph38.0 mph0.00 inOvercast
5:53 AM30.9 °F23.0 °F72 %29.49 in10.0 miWest (260°)21.9 mph33.4 mph0.00 inOvercast
6:11 AM30.2 °F23.0 °F75 %29.48 in5.0 miWSW (250°)20.7 mph36.8 mph0.00 inSnowLight Snow
6:20 AM30.2 °F23.0 °F75 %29.49 in2.5 miWSW (250°)28.8 mph39.1 mph0.00 inSnowLight Snow
6:23 AM30.2 °F21.2 °F69 %29.49 in7.0 miWest (260°)26.5 mph39.1 mph0.00 inSnowLight Snow
6:37 AM30.2 °F21.2 °F69 %29.51 in7.0 miWest (260°)27.6 mph38.0 mph0.00 inOvercast
6:53 AM30.0 °F21.9 °F72 %29.55 in5.0 miWest (260°)28.8 mph41.4 mph0.00 inSnowLight Snow
7:01 AM30.2 °F21.2 °F69 %29.53 in7.0 miWSW (250°)25.3 mph41.4 mph0.00 inSnowLight Snow
7:15 AM30.2 °F21.2 °F69 %29.53 in7.0 miWest (260°)21.9 mph36.8 mph0.00 inSnowLight Snow
7:25 AM28.4 °F19.4 °F69 %29.54 in7.0 miWest (260°)23.0 mph33.4 mph0.00 inOvercast
7:53 AM28.9 °F19.0 °F67 %29.59 in10.0 miWest (280°)20.7 mph34.5 mph0.00 inOvercast
8:32 AM26.6 °F19.4 °F74 %29.60 in1.5 miWSW (250°)21.9 mph27.6 mph0.00 inSnowLight Snow
8:38 AM26.6 °F21.2 °F80 %29.60 in2.0 miWSW (250°)21.9 mph27.6 mph0.00 inSnowLight Snow
8:47 AM26.6 °F21.2 °F80 %29.60 in1.0 miWest (260°)20.7 mph34.5 mph0.00 inSnowLight Snow
8:53 AM26.1 °F21.9 °F84 %29.64 in1.0 miWest (260°)19.6 mph34.5 mph0.00 inSnowLight Snow
9:17 AM24.8 °F21.2 °F86 %29.63 in0.2 miWest (260°)24.2 mph29.9 mph0.00 inFog-SnowSnow
9:28 AM24.8 °F21.2 °F86 %29.63 in0.2 miWest (260°)21.9 mph25.3 mph0.00 inFog-SnowHeavy Snow
9:33 AM24.8 °F21.2 °F86 %29.63 in0.5 miWest (260°)20.7 mph27.6 mph0.00 inFog-SnowSnow
9:48 AM24.8 °F21.2 °F86 %29.64 in1.0 miWest (260°)20.7 mph29.9 mph0.00 inSnowLight Snow
9:53 AM24.1 °F21.0 °F88 %29.68 in1.0 miWest (270°)20.7 mph29.9 mph0.00 inSnowSnow
10:14 AM24.8 °F15.8 °F69 %29.66 in5.0 miWest (270°)17.3 mph36.8 mph0.00 inSnowLight Snow
10:53 AM25.0 °F15.1 °F66 %29.72 in9.0 miWest (260°)19.6 mph29.9 mph0.00 inOvercast
11:41 AM24.8 °F15.8 °F69 %29.69 in1.8 miWSW (250°)25.3 mph34.5 mph0.00 inSnowLight Snow
11:49 AM24.8 °F15.8 °F69 %29.68 in5.0 miWSW (250°)25.3 mph38.0 mph0.00 inSnowLight Snow
11:53 AM25.0 °F16.0 °F69 %29.73 in5.0 miWSW (240°)25.3 mph38.0 mph0.00 inOvercast
12:53 PM26.1 °F17.1 °F69 %29.73 in5.0 miWest (260°)25.3 mph40.3 mph0.00 inSnowLight Snow
1:53 PM24.1 °F12.0 °F60 %29.75 in10.0 miWest (270°)28.8 mph42.6 mph0.00 inOvercast
2:53 PM23.0 °F15.1 °F72 %29.79 in3.0 miWNW (290°)18.4 mph33.4 mph0.00 inSnowLight Snow
3:08 PM23.0 °F15.8 °F74 %29.74 in6.0 miWSW (250°)25.3 mph35.7 mph0.00 inSnowBlowing Snow
3:53 PM23.0 °F14.0 °F68 %29.83 in5.0 miWSW (240°)17.3 mph29.9 mph0.00 inSnowLight Snow
4:53 PM24.1 °F10.9 °F57 %29.84 in10.0 miWest (260°)17.3 mph35.7 mph0.00 inOvercast
5:53 PM23.0 °F12.9 °F65 %29.84 in10.0 miWSW (250°)16.1 mph28.8 mphMostly Cloudy
6:53 PM24.1 °F14.0 °F65 %29.84 in10.0 miSW (230°)15.0 mphOvercast
7:53 PM24.1 °F16.0 °F71 %29.86 in5.0 miWSW (240°)17.3 mph23.0 mph0.00 inSnowLight Snow
8:22 PM24.8 °F17.6 °F74 %29.80 in3.0 miWSW (250°)15.0 mph0.00 inSnowLight Snow
8:28 PM23.0 °F17.6 °F80 %29.80 in1.8 miWest (260°)11.5 mph20.7 mph0.00 inSnowLight Snow
8:37 PM23.0 °F19.4 °F86 %29.80 in3.0 miWest (270°)11.5 mph18.4 mph0.00 inSnowLight Snow
8:48 PM23.0 °F19.4 °F86 %29.80 in9.0 miWSW (250°)10.4 mph0.00 inOvercast
8:53 PM23.0 °F19.0 °F85 %29.86 in10.0 miWest (260°)11.5 mph17.3 mph0.00 inOvercast
9:15 PM23.0 °F19.4 °F86 %29.81 in2.5 miWSW (250°)11.5 mph0.00 inSnowLight Snow
9:27 PM23.0 °F19.4 °F86 %29.81 in3.0 miWest (260°)10.4 mph0.00 inSnowLight Snow
9:40 PM23.0 °F19.4 °F86 %29.81 in2.5 miWest (270°)10.4 mph0.00 inSnowLight Snow
9:53 PM23.0 °F19.0 °F85 %29.88 in2.0 miWest (280°)9.2 mph0.00 inSnowLight Snow
10:25 PM23.0 °F19.4 °F86 %29.81 in2.0 miWSW (240°)10.4 mph0.00 inSnowLight Snow
10:46 PM23.0 °F19.4 °F86 %29.81 in2.0 miSW (230°)15.0 mph0.00 inSnowLight Snow
10:53 PM23.0 °F19.0 °F85 %29.87 in2.0 miWSW (240°)12.7 mph21.9 mph0.00 inSnowLight Snow
11:08 PM21.2 °F19.4 °F93 %29.81 in4.0 miWSW (240°)13.8 mph0.00 inOvercast
11:19 PM21.2 °F19.4 °F93 %29.80 in1.8 miWSW (240°)11.5 mph0.00 inSnowLight Snow
11:30 PM21.2 °F19.4 °F93 %29.80 in3.0 miWSW (250°)10.4 mph0.00 inSnowLight Snow
11:37 PM23.0 °F19.4 °F86 %29.80 in4.0 miWSW (250°)9.2 mph0.00 inSnowLight Snow
11:53 PM21.9 °F19.0 °F89 %29.85 in7.0 miWest (260°)10.4 mph0.00 inOvercast
Hourly data recorded from KAGC, located miles away from Coal Center, Pennsylvania







STORIES FROM OUR PARTNERS